Location: Crescent
(42.8242°N, 73.7329°W)
Time: 05:22:26
(UTC+00:00)

A-11 Canister half - Pass Details

Date: 21 February 2026
Orbit: 1524 x 1683 km, 47.3° (Epoch: 14 March)

Event Time Altitude Azimuth Distance (km) Brightness Sun altitude
Rises 00:21:12 0° 284° (WNW) 4,691 13.1 -20.5°
Reaches altitude 10° 00:24:17 10° 287° (WNW) 3,700 12.1 -21.0°
Maximum altitude 00:33:36 72° 12° (NNE) 1,592 9.0 -22.7°
Enters shadow 00:37:50 37° 87° (E) 2,212 9.3 -23.5°
